Regional Weather Roundup
Issued by NWS

Home | Current Version | Previous Version | Text Only | Print | Product List | Glossary On
Versions: 1 2 3 4 5 6 7 8 9 10 11 12 13 14 15 16 17 18 19 20 21 22 23 24 25 26 27 28 29 30 31 32 33 34 35 36 37 38 39 40 41 42 43 44 45 46 47 48 49 50
000
ASUS44 KFWD 262303
RWRTX
NORTH TEXAS HOURLY WEATHER ROUNDUP
NATIONAL WEATHER SERVICE FORT WORTH TX
500 PM CST FRI DEC 26 2014

NOTE: "FAIR" INDICATES FEW OR NO CLOUDS BELOW 12,000 FEET WITH NO
SIGNIFICANT WEATHER AND/OR OBSTRUCTIONS TO VISIBILITY.

TXZ118-119-270000-
DALLAS/FORT WORTH METROPLEX

CITY           SKY/WX    TMP DP  RH WIND       PRES   REMARKS
DFW AIRPORT    PTCLDY    65  59  81 S10       29.86R
DALLAS LOVE    MOCLDY    63  59  87 SE13      29.87S
FTW MEACHAM    MOCLDY    68  57  68 S13       29.84R
DAL-EXECUTIVE  MOCLDY    66  60  81 SE12      29.87S
FTW-ALLIANCE   PTCLDY    67  57  70 S12G21    29.85R
FTW-SPINKS     PTCLDY    66  57  72 S9G18     29.87S
ARLINGTON      MOCLDY    69  57  65 S13G26    29.87R
ADDISON        MOCLDY    64  59  82 SE14G22   29.88R
MESQUITE       CLOUDY    63  61  94 SE7       29.90R
LANCASTER      CLOUDY    64  59  81 SE8       29.90R
$$

TXZ091>094-102>105-117-120-121-131>134-270000-
NORTH CENTRAL TEXAS

CITY           SKY/WX    TMP DP  RH WIND       PRES   REMARKS
SHRMAN/DENISON CLOUDY    61  60  96 SE12      29.90R
GAINESVILLE    CLEAR     61  56  84 SE9       29.89R
BRIDGEPORT     MOCLDY    70  57  62 SE7       29.85R
DECATUR        CLEAR     65  55  70 SE10      29.85R
DENTON         CLOUDY    65  58  78 SE10      29.86R
MCKINNEY       CLOUDY    61  59  93 SE10      29.89R
GREENVILLE     CLOUDY    59  57  94 SE10      29.91F
ROCKWALL       CLOUDY    61  60  96 SE8       29.88F
TERRELL        CLOUDY    64  60  87 SE6       29.91S
WAXAHACHIE     CLOUDY    66  62  87 S10       29.89R
CLEBURNE       PTCLDY    68  61  77 S12G17    29.88R
GRANBURY       PTCLDY    71  56  58 SE13      29.85R
$$

TXZ083>090-098>101-113>116-127>130-139>142-154-155-270000-
WESTERN NORTH TEXAS

CITY           SKY/WX    TMP DP  RH WIND       PRES   REMARKS
WICHITA FALLS  CLEAR     62  48  60 NW5       29.86R
WF-KICKAPOO    CLEAR     65  47  52 CALM      29.87R
VERNON         CLEAR     60  32  35 N10       29.90R
ABILENE        CLEAR     67  43  41 S10       29.84R
ABILENE-DYESS  CLEAR     66  45  46 S10       29.83R
BRECKENRIDGE   CLEAR     72  42  34 SW5       29.82R
MINERAL WELLS  CLEAR     71  51  49 S12       29.82R
STEPHENVILLE   CLEAR     70  52  52 S10       29.87R
COMANCHE       CLEAR     69  54  58 S12       29.85R
COLEMAN        CLEAR     68  49  50 SE9       29.85R
BRADY          CLEAR     70  50  49 SE10      29.85R
$$

TXZ143>147-156>162-174-175-270000-
CENTRAL TEXAS

CITY           SKY/WX    TMP DP  RH WIND       PRES   REMARKS
WACO           CLOUDY    67  61  81 SE10      29.88R
WACO-TSTC      PTCLDY    66  63  88 S9        29.88S
WACO-MCGREGOR  PTCLDY    70  57  64 S17       29.88S
HILLSBORO      MOCLDY    67  59  76 SE14      29.88S
CORSICANA      MOCLDY    66  61  84 SE15      29.91R
MEXIA          CLOUDY    65  62  88 SE12G17   29.90R
HEARNE         CLOUDY    68  64  86 SE9       29.92S
CAMERON        CLOUDY    69  64  84 SE6       29.89S
TEMPLE         PTCLDY    68  57  68 SE12      29.86S
KILLEEN        NOT AVBL
KILLEEN-SKYLRK CLEAR     70  57  64 S12       29.84F
FORT HOOD      CLEAR     69  59  69 S12       29.86S
GATESVILLE     CLEAR     70  57  64 S8        29.89R
HAMILTON       CLEAR     68  53  58 S17G23    29.88R
$$

TXZ095>097-106>112-122>126-135>138-148>153-164>167-270000-
EAST TEXAS

CITY           SKY/WX    TMP DP  RH WIND       PRES   REMARKS
PARIS          CLOUDY    55  54  94 SE10      29.94S
SULPHUR SPRNGS LGT RAIN  58  58  97 SE3       29.95S
MOUNT PLEASANT CLOUDY    58  56  92 SE12      29.98R
GILMER         CLOUDY    56  55  95 SE12      29.97R
MINEOLA        CLOUDY    63  61  94 SE7       29.95R
TYLER          CLOUDY    61  58  90 SE13      29.94S
LONGVIEW       LGT RAIN  58  55  90 SE8       29.97S FOG
MARSHALL       CLOUDY    58  55  90 SE5       30.01S
ATHENS         CLOUDY    61  61 100 S7        29.92S
PALESTINE      CLOUDY    63  62  97 SE8       29.95S
JACKSONVILLE   CLOUDY    60  59  97 SE7       29.98S
HENDERSON      DRIZZLE   58  58  99 SE8       29.98S
NACOGDOCHES      N/A    N/A N/A N/A MISG        N/A
LUFKIN         CLOUDY    65  58  78 E8        29.98R
$$

SUPPLEMENTAL OBSERVATIONS (CENTRAL)

CITY           SKY/WX    TMP DP  RH WIND       PRES   REMARKS
$$

SUPPLEMENTAL OBSERVATIONS (WEST)

CITY           SKY/WX    TMP DP  RH WIND       PRES   REMARKS
$$

SUPPLEMENTAL OBSERVATIONS (EAST)

CITY           SKY/WX    TMP DP  RH WIND       PRES   REMARKS
$$

SUPPLEMENTAL OBSERVATIONS ARE A COLLECTION OF AUTOMATED INSTRUMENTS
THAT ARE MAINTAINED BY A VARIETY OF FEDERAL AND STATE AGENCIES.
CERTAIN ELEMENTS...SUCH AS HUMIDITY VALUES AND SUSTAINED WIND
SPEEDS...MAY BE APPROXIMATED.



USA.gov is the U.S. government's official web portal to all federal, state and local government web resources and services.